SKY730 RJCC-RJTT

Flight info

Callsign SKY730
Flight time 1h 41m
Altitude 36000
Route TOBBY Y10 GODIN
Aircraft B738/M-SDE2E3FGHIRWXY/LB1

Departure

Time 2026-05-04 12:10
Airport New Chitose Airport (RJCC)

Arrival

Time 2026-05-04 13:51
Airport Tokyo Haneda International Airport (RJTT)
Time Latitude Longitude Altitude Speed Heading
2026-05-04 11:36 42.78460 141.67989 87 ft 0 kts 343°
2026-05-04 11:59 42.78448 141.67994 90 ft 2 kts 343°
2026-05-04 11:59 42.78432 141.68001 89 ft 2 kts 343°
2026-05-04 11:59 42.78417 141.68007 89 ft 2 kts 342°
2026-05-04 12:00 42.78401 141.68014 86 ft 2 kts 341°
2026-05-04 12:00 42.78386 141.68022 87 ft 2 kts 338°
2026-05-04 12:00 42.78370 141.68030 88 ft 2 kts 343°
2026-05-04 12:00 42.78354 141.68035 86 ft 2 kts 352°
2026-05-04 12:01 42.78344 141.68036 88 ft 0 kts
2026-05-04 12:01 42.78343 141.68036 88 ft 0 kts
2026-05-04 12:03 42.78347 141.68039 88 ft 1 kts 29°
2026-05-04 12:03 42.78354 141.68049 86 ft 2 kts 43°
2026-05-04 12:04 42.78371 141.68088 86 ft 6 kts 75°
2026-05-04 12:04 42.78354 141.68150 85 ft 8 kts 123°
2026-05-04 12:04 42.78322 141.68225 84 ft 10 kts 117°
2026-05-04 12:04 42.78291 141.68305 84 ft 9 kts 118°
2026-05-04 12:05 42.78251 141.68372 84 ft 9 kts 135°
2026-05-04 12:05 42.78205 141.68431 83 ft 9 kts 142°
2026-05-04 12:05 42.78150 141.68480 84 ft 11 kts 148°
2026-05-04 12:05 42.78071 141.68549 86 ft 16 kts 143°
2026-05-04 12:06 42.78003 141.68675 82 ft 17 kts 125°
2026-05-04 12:06 42.77900 141.68749 82 ft 18 kts 172°
2026-05-04 12:06 42.77769 141.68772 83 ft 20 kts 173°
2026-05-04 12:06 42.77625 141.68796 73 ft 21 kts 173°
2026-05-04 12:07 42.77482 141.68821 70 ft 20 kts 172°
2026-05-04 12:07 42.77343 141.68846 74 ft 20 kts 172°
2026-05-04 12:07 42.77198 141.68872 69 ft 23 kts 172°
2026-05-04 12:07 42.77025 141.68902 71 ft 26 kts 172°
2026-05-04 12:08 42.76855 141.68938 69 ft 20 kts 159°
2026-05-04 12:08 42.76769 141.68949 70 ft 12 kts 176°
2026-05-04 12:08 42.76685 141.68962 63 ft 15 kts 173°
2026-05-04 12:08 42.76560 141.68985 64 ft 20 kts 173°
2026-05-04 12:09 42.76403 141.69012 63 ft 23 kts 173°
2026-05-04 12:09 42.76249 141.69041 61 ft 19 kts 169°
2026-05-04 12:09 42.76171 141.69134 60 ft 16 kts 93°
2026-05-04 12:09 42.76216 141.69258 62 ft 16 kts 19°
2026-05-04 12:10 42.76438 141.69233 58 ft 68 kts 352°
2026-05-04 12:10 42.77160 141.69109 134 ft 133 kts 354°
2026-05-04 12:10 42.78115 141.68982 845 ft 148 kts 351°
2026-05-04 12:10 42.79208 141.68869 1752 ft 166 kts 350°
2026-05-04 12:11 42.80378 141.68676 2563 ft 165 kts 352°
2026-05-04 12:11 42.81523 141.69088 3215 ft 177 kts 18°
2026-05-04 12:11 42.82561 141.70075 3857 ft 189 kts 37°
2026-05-04 12:11 42.83311 141.71609 4496 ft 203 kts 61°
2026-05-04 12:12 42.83534 141.73562 5086 ft 218 kts 91°
2026-05-04 12:12 42.83062 141.75555 5616 ft 227 kts 123°
2026-05-04 12:12 42.81935 141.77033 6143 ft 225 kts 156°
2026-05-04 12:12 42.80449 141.77584 6526 ft 221 kts 186°
2026-05-04 12:13 42.78964 141.77167 6948 ft 217 kts 213°
2026-05-04 12:14 42.68872 141.68710 9732 ft 287 kts 189°
2026-05-04 12:15 42.66853 141.68771 10363 ft 294 kts 180°
2026-05-04 12:15 42.64796 141.69023 10920 ft 297 kts 180°
2026-05-04 12:15 42.62729 141.69268 10970 ft 301 kts 181°
2026-05-04 12:15 42.60623 141.69488 11004 ft 305 kts 181°
2026-05-04 12:16 42.58496 141.69704 10999 ft 311 kts 183°
2026-05-04 12:16 42.56250 141.69919 11018 ft 333 kts 181°
2026-05-04 12:16 42.53925 141.70144 10999 ft 336 kts 182°
2026-05-04 12:16 42.51584 141.70368 10980 ft 336 kts 181°
2026-05-04 12:17 42.49277 141.70592 11456 ft 329 kts 182°
2026-05-04 12:17 42.46966 141.70812 12113 ft 335 kts 181°
2026-05-04 12:17 42.44625 141.71033 12789 ft 340 kts 182°
2026-05-04 12:17 42.42278 141.71254 13423 ft 344 kts 181°
2026-05-04 12:18 42.39871 141.71480 14034 ft 348 kts 181°
2026-05-04 12:18 42.37451 141.71708 14646 ft 350 kts 181°
2026-05-04 12:18 42.35022 141.71939 15270 ft 351 kts 181°
2026-05-04 12:18 42.32584 141.72169 15964 ft 349 kts 181°
2026-05-04 12:19 42.30159 141.72399 16687 ft 350 kts 181°
2026-05-04 12:19 42.27722 141.72630 17352 ft 352 kts 181°
2026-05-04 12:19 42.25274 141.72862 18002 ft 353 kts 181°
2026-05-04 12:19 42.22815 141.73095 18603 ft 354 kts 181°
2026-05-04 12:20 42.20351 141.73328 19221 ft 354 kts 181°
2026-05-04 12:20 42.17888 141.73560 19840 ft 355 kts 181°
2026-05-04 12:20 42.15425 141.73793 20483 ft 354 kts 181°
2026-05-04 12:20 42.13006 141.74021 21121 ft 353 kts 181°
2026-05-04 12:21 42.10558 141.74252 21790 ft 352 kts 181°
2026-05-04 12:21 42.08121 141.74482 22466 ft 350 kts 181°
2026-05-04 12:21 42.05693 141.74710 23105 ft 349 kts 181°
2026-05-04 12:21 42.03253 141.74938 23492 ft 352 kts 182°
2026-05-04 12:22 42.00802 141.75163 23889 ft 355 kts 182°
2026-05-04 12:22 41.99164 141.75316 24150 ft 357 kts 182°
2026-05-04 12:22 41.96674 141.75551 24574 ft 358 kts 182°
2026-05-04 12:22 41.94183 141.75785 24973 ft 359 kts 182°
2026-05-04 12:23 41.91685 141.76020 25459 ft 358 kts 183°
2026-05-04 12:23 41.89202 141.76254 25946 ft 357 kts 184°
2026-05-04 12:23 41.86729 141.76487 26444 ft 356 kts 184°
2026-05-04 12:23 41.84262 141.76721 26959 ft 354 kts 184°
2026-05-04 12:24 41.81815 141.76952 27477 ft 352 kts 185°
2026-05-04 12:24 41.79375 141.77183 28002 ft 350 kts 185°
2026-05-04 12:24 41.76956 141.77411 28544 ft 347 kts 186°
2026-05-04 12:24 41.74559 141.77637 29025 ft 343 kts 187°
2026-05-04 12:25 41.72223 141.77858 29581 ft 339 kts 187°
2026-05-04 12:25 41.69884 141.78078 30003 ft 336 kts 187°
2026-05-04 12:25 41.67547 141.78295 30338 ft 336 kts 187°
2026-05-04 12:25 41.65219 141.78511 30699 ft 335 kts 187°
2026-05-04 12:26 41.62895 141.78727 31067 ft 334 kts 187°
2026-05-04 12:26 41.60580 141.78942 31402 ft 333 kts 187°
2026-05-04 12:26 41.58259 141.79158 31688 ft 334 kts 187°
2026-05-04 12:26 41.55932 141.79374 31990 ft 334 kts 187°
2026-05-04 12:27 41.53618 141.79592 32268 ft 333 kts 188°
2026-05-04 12:27 41.51320 141.79688 32587 ft 325 kts 194°
2026-05-04 12:27 41.49110 141.79433 32836 ft 320 kts 198°
2026-05-04 12:27 41.46953 141.78848 33101 ft 315 kts 202°
2026-05-04 12:28 41.44821 141.78155 33358 ft 315 kts 202°
2026-05-04 12:28 41.42689 141.77451 33608 ft 315 kts 202°
2026-05-04 12:28 41.40562 141.76748 33835 ft 315 kts 202°
2026-05-04 12:28 41.38430 141.76045 34058 ft 315 kts 202°
2026-05-04 12:29 41.36301 141.75347 34291 ft 314 kts 202°
2026-05-04 12:29 41.34205 141.74660 34506 ft 314 kts 202°
2026-05-04 12:29 41.32085 141.73969 34754 ft 313 kts 202°
2026-05-04 12:29 41.29973 141.73280 34944 ft 311 kts 203°
2026-05-04 12:30 41.27867 141.72595 35164 ft 311 kts 203°
2026-05-04 12:30 41.25765 141.71913 35403 ft 309 kts 204°
2026-05-04 12:30 41.23672 141.71233 35526 ft 312 kts 203°
2026-05-04 12:30 41.21552 141.70541 35559 ft 316 kts 203°
2026-05-04 12:31 41.17215 141.69129 35566 ft 326 kts 203°
2026-05-04 12:31 41.12742 141.67678 35581 ft 336 kts 202°
2026-05-04 12:32 41.05818 141.65442 35598 ft 347 kts 203°
2026-05-04 12:33 41.01144 141.63945 35544 ft 345 kts 202°
2026-05-04 12:33 40.96432 141.62426 35596 ft 353 kts 202°
2026-05-04 12:34 40.91601 141.60870 35599 ft 361 kts 202°
2026-05-04 12:34 40.86684 141.59294 35612 ft 365 kts 202°
2026-05-04 12:35 40.81767 141.57725 35590 ft 359 kts 203°
2026-05-04 12:35 40.79398 141.56983 35558 ft 342 kts 202°
2026-05-04 12:35 40.77100 141.56256 35605 ft 339 kts 203°
2026-05-04 12:36 40.72462 141.54761 35545 ft 347 kts 202°
2026-05-04 12:36 40.67707 141.53231 35545 ft 355 kts 202°
2026-05-04 12:37 40.62901 141.51698 35627 ft 359 kts 202°
2026-05-04 12:37 40.58027 141.50153 35620 ft 355 kts 202°
2026-05-04 12:37 40.55665 141.49415 35605 ft 342 kts 203°
2026-05-04 12:38 40.53387 141.48701 35631 ft 334 kts 203°
2026-05-04 12:38 40.48879 141.47267 35640 ft 332 kts 203°
2026-05-04 12:39 40.44387 141.45837 35636 ft 331 kts 203°
2026-05-04 12:39 40.39934 141.44425 35630 ft 331 kts 203°
2026-05-04 12:40 40.35448 141.43005 35546 ft 333 kts 203°
2026-05-04 12:40 40.30931 141.41580 35628 ft 334 kts 203°
2026-05-04 12:41 40.26400 141.40152 35640 ft 334 kts 203°
2026-05-04 12:41 40.21885 141.38734 35635 ft 333 kts 203°
2026-05-04 12:42 40.17372 141.37315 35674 ft 334 kts 203°
2026-05-04 12:42 40.12864 141.35902 35650 ft 335 kts 204°
2026-05-04 12:43 40.08310 141.34475 35674 ft 337 kts 204°
2026-05-04 12:43 40.03717 141.33033 35649 ft 340 kts 203°
2026-05-04 12:44 39.99101 141.31586 35687 ft 341 kts 204°
2026-05-04 12:44 39.94492 141.30077 35685 ft 342 kts 204°
2026-05-04 12:45 39.89869 141.28554 35681 ft 344 kts 204°
2026-05-04 12:45 39.85267 141.27046 35694 ft 343 kts 204°
2026-05-04 12:46 39.80646 141.25534 35706 ft 341 kts 204°
2026-05-04 12:46 39.76027 141.24024 35717 ft 341 kts 204°
2026-05-04 12:47 39.71423 141.22525 35730 ft 339 kts 204°
2026-05-04 12:47 39.66851 141.21038 35724 ft 338 kts 204°
2026-05-04 12:48 39.62308 141.19563 35721 ft 335 kts 205°
2026-05-04 12:48 39.57829 141.18107 35733 ft 333 kts 205°
2026-05-04 12:49 39.53349 141.16654 35736 ft 331 kts 205°
2026-05-04 12:49 39.48895 141.15210 35735 ft 330 kts 204°
2026-05-04 12:50 39.44436 141.13768 35760 ft 331 kts 204°
2026-05-04 12:50 39.39943 141.12365 35758 ft 333 kts 204°
2026-05-04 12:51 39.35411 141.10998 35764 ft 334 kts 204°
2026-05-04 12:51 39.30870 141.09630 35710 ft 336 kts 203°
2026-05-04 12:52 39.26378 141.08276 35757 ft 337 kts 203°
2026-05-04 12:52 39.21795 141.06893 35770 ft 338 kts 203°
2026-05-04 12:53 39.17206 141.05510 35771 ft 340 kts 205°
2026-05-04 12:53 39.12604 141.04126 35766 ft 339 kts 205°
2026-05-04 12:54 39.08009 141.02744 35767 ft 338 kts 203°
2026-05-04 12:54 39.03444 141.01374 35761 ft 338 kts 203°
2026-05-04 12:55 38.98856 141.00000 35781 ft 338 kts 204°
2026-05-04 12:55 38.94269 140.98630 35777 ft 338 kts 205°
2026-05-04 12:56 38.89707 140.97260 35721 ft 336 kts 203°
2026-05-04 12:56 38.85166 140.95904 35773 ft 334 kts 203°
2026-05-04 12:57 38.80642 140.94555 35781 ft 333 kts 203°
2026-05-04 12:57 38.76121 140.93208 35806 ft 333 kts 205°
2026-05-04 12:58 38.71623 140.91869 35792 ft 334 kts 206°
2026-05-04 12:58 38.67091 140.90520 35781 ft 334 kts 204°
2026-05-04 12:59 38.62541 140.89169 35791 ft 337 kts 204°
2026-05-04 12:59 38.57958 140.87809 35796 ft 339 kts 204°
2026-05-04 13:00 38.53341 140.86445 35805 ft 342 kts 205°
2026-05-04 13:00 38.48684 140.85081 35798 ft 344 kts 205°
2026-05-04 13:01 38.44000 140.83711 35809 ft 346 kts 205°
2026-05-04 13:01 38.39328 140.82345 35796 ft 347 kts 205°
2026-05-04 13:02 38.34617 140.80970 35797 ft 347 kts 205°
2026-05-04 13:02 38.29938 140.79608 35772 ft 346 kts 205°
2026-05-04 13:03 38.25296 140.78256 35809 ft 345 kts 205°
2026-05-04 13:03 38.20603 140.76880 35800 ft 347 kts 205°
2026-05-04 13:04 38.15897 140.75496 35741 ft 347 kts 205°
2026-05-04 13:04 38.11175 140.74110 35710 ft 347 kts 205°
2026-05-04 13:05 38.06509 140.72750 35739 ft 340 kts 205°
2026-05-04 13:05 38.01920 140.71410 35756 ft 336 kts 206°
2026-05-04 13:06 37.97413 140.70093 35774 ft 335 kts 205°
2026-05-04 13:06 37.92803 140.68735 35813 ft 344 kts 205°
2026-05-04 13:07 37.88116 140.67363 35819 ft 349 kts 205°
2026-05-04 13:07 37.83338 140.65975 35838 ft 356 kts 205°
2026-05-04 13:08 37.78547 140.64585 35816 ft 350 kts 205°
2026-05-04 13:08 37.73841 140.63228 35833 ft 345 kts 205°
2026-05-04 13:09 37.69957 140.62115 35795 ft 343 kts 205°
2026-05-04 13:09 37.65291 140.60770 35827 ft 344 kts 205°
2026-05-04 13:10 37.60602 140.59421 35846 ft 346 kts 205°
2026-05-04 13:10 37.55859 140.58056 35845 ft 351 kts 205°
2026-05-04 13:11 37.51083 140.56691 35847 ft 353 kts 205°
2026-05-04 13:11 37.46291 140.55324 35847 ft 353 kts 205°
2026-05-04 13:12 37.41529 140.53965 35858 ft 353 kts 205°
2026-05-04 13:12 37.36732 140.52598 35856 ft 353 kts 205°
2026-05-04 13:13 37.31922 140.51227 35857 ft 354 kts 205°
2026-05-04 13:13 37.26880 140.50855 35827 ft 395 kts 181°
2026-05-04 13:13 37.24231 140.52231 35626 ft 431 kts 166°
2026-05-04 13:14 37.21789 140.54619 34955 ft 471 kts 149°
2026-05-04 13:14 37.19792 140.58050 34521 ft 505 kts 133°
2026-05-04 13:14 37.18479 140.62251 34194 ft 529 kts 118°
2026-05-04 13:14 37.17675 140.66808 33831 ft 533 kts 114°
2026-05-04 13:15 37.17032 140.71365 33393 ft 530 kts 112°
2026-05-04 13:15 37.16355 140.75878 32992 ft 515 kts 120°
2026-05-04 13:15 37.15057 140.79887 32574 ft 480 kts 137°
2026-05-04 13:15 37.13117 140.83087 32096 ft 443 kts 154°
2026-05-04 13:16 37.10758 140.85310 31638 ft 412 kts 167°
2026-05-04 13:16 37.08238 140.86994 31171 ft 410 kts 170°
2026-05-04 13:16 37.05693 140.88516 30896 ft 409 kts 172°
2026-05-04 13:17 37.00484 140.91411 30831 ft 409 kts 172°
2026-05-04 13:17 36.97873 140.92459 30801 ft 378 kts 187°
2026-05-04 13:17 36.95341 140.92462 30318 ft 353 kts 203°
2026-05-04 13:17 36.93146 140.91394 29878 ft 329 kts 220°
2026-05-04 13:18 36.91445 140.89569 29354 ft 318 kts 229°
2026-05-04 13:18 36.89967 140.87532 28821 ft 314 kts 231°
2026-05-04 13:18 36.88554 140.85462 28297 ft 312 kts 231°
2026-05-04 13:18 36.87160 140.83392 27784 ft 311 kts 232°
2026-05-04 13:19 36.85766 140.81317 27168 ft 312 kts 232°
2026-05-04 13:19 36.84367 140.79234 26563 ft 314 kts 232°
2026-05-04 13:19 36.82979 140.77173 25985 ft 315 kts 232°
2026-05-04 13:19 36.81566 140.75083 25337 ft 315 kts 232°
2026-05-04 13:20 36.80149 140.72997 24774 ft 315 kts 232°
2026-05-04 13:20 36.78728 140.70917 24193 ft 315 kts 232°
2026-05-04 13:20 36.77302 140.68850 23658 ft 314 kts 232°
2026-05-04 13:20 36.75871 140.66791 23039 ft 313 kts 232°
2026-05-04 13:21 36.74440 140.64742 22422 ft 314 kts 232°
2026-05-04 13:21 36.72987 140.62697 21755 ft 314 kts 232°
2026-05-04 13:21 36.71547 140.60650 21131 ft 314 kts 232°
2026-05-04 13:21 36.70092 140.58618 20523 ft 317 kts 226°
2026-05-04 13:22 36.68209 140.57115 19928 ft 325 kts 216°
2026-05-04 13:22 36.66243 140.55729 19334 ft 323 kts 218°
2026-05-04 13:22 36.64380 140.54180 18753 ft 321 kts 221°
2026-05-04 13:22 36.62615 140.52490 18190 ft 320 kts 224°
2026-05-04 13:23 36.60855 140.50791 17551 ft 323 kts 219°
2026-05-04 13:23 36.58900 140.49433 16918 ft 329 kts 211°
2026-05-04 13:23 36.56779 140.48320 16284 ft 332 kts 210°
2026-05-04 13:23 36.54638 140.47235 15669 ft 333 kts 209°
2026-05-04 13:24 36.52492 140.46154 15060 ft 333 kts 209°
2026-05-04 13:24 36.50341 140.45066 14428 ft 334 kts 209°
2026-05-04 13:24 36.48187 140.43974 13842 ft 333 kts 209°
2026-05-04 13:25 36.43988 140.41843 12530 ft 319 kts 208°
2026-05-04 13:25 36.41956 140.40810 12063 ft 309 kts 208°
2026-05-04 13:25 36.39993 140.39812 11655 ft 298 kts 208°
2026-05-04 13:25 36.38104 140.38850 11277 ft 289 kts 208°
2026-05-04 13:26 36.36287 140.37922 11022 ft 282 kts 208°
2026-05-04 13:26 36.34506 140.37015 10978 ft 270 kts 208°
2026-05-04 13:26 36.32808 140.36151 10961 ft 257 kts 209°
2026-05-04 13:26 36.31187 140.35326 10951 ft 246 kts 209°
2026-05-04 13:27 36.29623 140.34527 10961 ft 240 kts 210°
2026-05-04 13:27 36.28091 140.33743 10974 ft 242 kts 210°
2026-05-04 13:27 36.26525 140.32940 10952 ft 244 kts 209°
2026-05-04 13:27 36.24952 140.32136 10964 ft 245 kts 209°
2026-05-04 13:28 36.23365 140.31326 10980 ft 251 kts 208°
2026-05-04 13:28 36.21667 140.30452 10997 ft 278 kts 208°
2026-05-04 13:28 36.19818 140.29505 10981 ft 291 kts 208°
2026-05-04 13:28 36.17932 140.28549 10972 ft 292 kts 207°
2026-05-04 13:29 36.16081 140.27617 10952 ft 282 kts 208°
2026-05-04 13:29 36.14305 140.26725 10983 ft 269 kts 208°
2026-05-04 13:29 36.12613 140.25872 10976 ft 256 kts 208°
2026-05-04 13:29 36.11003 140.25058 10993 ft 245 kts 208°
2026-05-04 13:30 36.09431 140.24258 11004 ft 244 kts 209°
2026-05-04 13:30 36.07876 140.23466 11000 ft 245 kts 209°
2026-05-04 13:30 36.06299 140.22666 10989 ft 246 kts 208°
2026-05-04 13:30 36.04717 140.21866 10992 ft 245 kts 208°
2026-05-04 13:31 36.03131 140.21064 10978 ft 245 kts 208°
2026-05-04 13:31 36.01477 140.20490 10985 ft 254 kts 192°
2026-05-04 13:31 35.99701 140.20442 10996 ft 257 kts 188°
2026-05-04 13:31 35.97928 140.20430 10998 ft 258 kts 188°
2026-05-04 13:32 35.96124 140.20416 10997 ft 259 kts 188°
2026-05-04 13:32 35.94355 140.20398 10994 ft 260 kts 188°
2026-05-04 13:32 35.92548 140.20376 11002 ft 261 kts 188°
2026-05-04 13:32 35.90743 140.20353 10990 ft 253 kts 188°
2026-05-04 13:33 35.89037 140.20332 10997 ft 239 kts 190°
2026-05-04 13:33 35.87419 140.20157 10989 ft 229 kts 195°
2026-05-04 13:33 35.85836 140.19880 11005 ft 230 kts 197°
2026-05-04 13:33 35.84247 140.19587 11003 ft 232 kts 197°
2026-05-04 13:34 35.82645 140.19291 10985 ft 234 kts 195°
2026-05-04 13:34 35.81031 140.19005 10997 ft 235 kts 195°
2026-05-04 13:34 35.79445 140.18726 10992 ft 237 kts 195°
2026-05-04 13:34 35.77816 140.18443 10995 ft 237 kts 195°
2026-05-04 13:35 35.76180 140.18161 10997 ft 236 kts 195°
2026-05-04 13:35 35.72948 140.17613 10561 ft 239 kts 195°
2026-05-04 13:35 35.71277 140.17326 10091 ft 244 kts 194°
2026-05-04 13:36 35.69589 140.17039 9618 ft 245 kts 193°
2026-05-04 13:36 35.67906 140.16757 9227 ft 242 kts 193°
2026-05-04 13:36 35.66240 140.16478 8823 ft 240 kts 193°
2026-05-04 13:36 35.64586 140.16201 8435 ft 239 kts 193°
2026-05-04 13:37 35.62947 140.15927 8044 ft 237 kts 193°
2026-05-04 13:37 35.61308 140.15652 7647 ft 237 kts 193°
2026-05-04 13:37 35.59676 140.15378 7276 ft 236 kts 193°
2026-05-04 13:37 35.58598 140.15198 7029 ft 236 kts 193°
2026-05-04 13:38 35.56426 140.14834 6542 ft 235 kts 193°
2026-05-04 13:38 35.54827 140.14566 6183 ft 235 kts 193°
2026-05-04 13:38 35.53205 140.14294 5817 ft 235 kts 193°
2026-05-04 13:38 35.51588 140.14023 5463 ft 234 kts 193°
2026-05-04 13:39 35.49990 140.13757 5204 ft 230 kts 193°
2026-05-04 13:39 35.48394 140.13490 4954 ft 232 kts 193°
2026-05-04 13:39 35.46784 140.13220 4711 ft 235 kts 193°
2026-05-04 13:39 35.45152 140.12946 4469 ft 239 kts 193°
2026-05-04 13:40 35.43494 140.12669 4220 ft 241 kts 193°
2026-05-04 13:40 35.41828 140.12391 4049 ft 243 kts 193°
2026-05-04 13:40 35.40137 140.12108 4019 ft 247 kts 193°
2026-05-04 13:40 35.38437 140.11826 4009 ft 245 kts 193°
2026-05-04 13:41 35.36747 140.11545 3998 ft 245 kts 193°
2026-05-04 13:41 35.35077 140.11267 4009 ft 245 kts 193°
2026-05-04 13:41 35.33366 140.10983 4010 ft 245 kts 193°
2026-05-04 13:42 35.30049 140.10255 3992 ft 237 kts 213°
2026-05-04 13:42 35.28889 140.08975 4033 ft 221 kts 241°
2026-05-04 13:42 35.28074 140.07401 4020 ft 218 kts 248°
2026-05-04 13:42 35.27325 140.05792 4017 ft 217 kts 248°
2026-05-04 13:43 35.26755 140.04121 4000 ft 207 kts 270°
2026-05-04 13:43 35.26923 140.02445 4016 ft 195 kts 292°
2026-05-04 13:43 35.27519 140.00976 4012 ft 193 kts 303°
2026-05-04 13:43 35.28203 139.99552 4009 ft 194 kts 303°
2026-05-04 13:44 35.28961 139.98196 3996 ft 193 kts 319°
2026-05-04 13:44 35.30107 139.97351 4020 ft 194 kts 330°
2026-05-04 13:44 35.31278 139.96531 4004 ft 193 kts 329°
2026-05-04 13:44 35.32436 139.95765 3996 ft 184 kts 333°
2026-05-04 13:45 35.33551 139.95040 3988 ft 180 kts 332°
2026-05-04 13:45 35.34640 139.94294 3996 ft 176 kts 331°
2026-05-04 13:45 35.35640 139.93591 4007 ft 161 kts 327°
2026-05-04 13:45 35.36624 139.92893 3915 ft 166 kts 327°
2026-05-04 13:46 35.37618 139.92185 3704 ft 162 kts 328°
2026-05-04 13:46 35.38567 139.91508 3501 ft 154 kts 328°
2026-05-04 13:46 35.39477 139.90859 3318 ft 149 kts 328°
2026-05-04 13:46 35.40376 139.90217 3111 ft 149 kts 328°
2026-05-04 13:47 35.41241 139.89599 2907 ft 141 kts 328°
2026-05-04 13:47 35.42089 139.88994 2729 ft 143 kts 329°
2026-05-04 13:47 35.42930 139.88392 2538 ft 138 kts 329°
2026-05-04 13:47 35.43742 139.87813 2365 ft 133 kts 330°
2026-05-04 13:48 35.44531 139.87250 2179 ft 130 kts 330°
2026-05-04 13:48 35.45315 139.86689 2007 ft 130 kts 330°
2026-05-04 13:48 35.46100 139.86128 1827 ft 130 kts 330°
2026-05-04 13:48 35.46884 139.85569 1651 ft 130 kts 330°
2026-05-04 13:49 35.47658 139.85018 1472 ft 129 kts 330°
2026-05-04 13:49 35.48435 139.84464 1332 ft 128 kts 331°
2026-05-04 13:49 35.49190 139.83923 1149 ft 127 kts 330°
2026-05-04 13:49 35.49954 139.83363 907 ft 127 kts 332°
2026-05-04 13:50 35.50743 139.82826 753 ft 133 kts 330°
2026-05-04 13:50 35.51546 139.82243 643 ft 135 kts 332°
2026-05-04 13:50 35.52353 139.81666 516 ft 133 kts 333°
2026-05-04 13:50 35.53137 139.81104 313 ft 128 kts 333°
2026-05-04 13:51 35.53895 139.80574 108 ft 127 kts 329°
2026-05-04 13:51 35.54655 139.80023 33 ft 120 kts 330°
2026-05-04 13:51 35.55267 139.79594 23 ft 72 kts 329°
2026-05-04 13:51 35.55478 139.79351 22 ft 23 kts 301°
2026-05-04 13:52 35.55483 139.79211 22 ft 0 kts 201°
2026-05-04 13:53 35.55450 139.79214 22 ft 6 kts 164°
2026-05-04 13:53 35.55397 139.79245 23 ft 11 kts 151°
2026-05-04 13:54 35.55225 139.79367 23 ft 16 kts 150°
2026-05-04 13:54 35.55131 139.79434 22 ft 15 kts 150°
2026-05-04 13:54 35.54955 139.79559 24 ft 14 kts 150°
2026-05-04 13:55 35.54872 139.79618 22 ft 13 kts 149°
2026-05-04 13:55 35.54737 139.79682 22 ft 13 kts 203°
2026-05-04 13:55 35.54685 139.79596 26 ft 13 kts 240°
2026-05-04 13:56 35.54637 139.79497 23 ft 14 kts 239°
2026-05-04 13:56 35.54590 139.79397 24 ft 13 kts 239°
2026-05-04 13:56 35.54482 139.79170 26 ft 18 kts 239°
2026-05-04 13:57 35.54417 139.79031 25 ft 19 kts 240°
2026-05-04 13:57 35.54352 139.78894 24 ft 18 kts 240°
2026-05-04 13:58 35.54172 139.78509 24 ft 16 kts 256°
2026-05-04 13:58 35.54327 139.78348 23 ft 15 kts 330°
2026-05-04 13:58 35.54417 139.78285 23 ft 15 kts 330°
2026-05-04 13:59 35.54514 139.78215 23 ft 18 kts 330°
2026-05-04 13:59 35.54635 139.78130 25 ft 22 kts 330°
2026-05-04 13:59 35.54906 139.77937 23 ft 23 kts 330°
2026-05-04 14:00 35.55045 139.77839 23 ft 23 kts 330°
2026-05-04 14:00 35.55234 139.77772 24 ft 12 kts 63°
2026-05-04 14:00 35.55213 139.77859 23 ft 11 kts 120°
2026-05-04 14:01 35.55184 139.77948 23 ft 11 kts 108°
2026-05-04 14:01 35.55175 139.77984 25 ft 1 kts 106°
2026-05-04 14:01 35.55174 139.77988 25 ft 0 kts 106°